EMGATE Weather Reports


time (UTC)temp
F
wind
direction
speed
knots
gust
knots
rain 1hr
in
rain 24hr
in
rain mn
in
humidity
%
barometer
mb
20260507060411 41 231 1.7 5.2 0.00 0.35 0.00 84 1006.3
20260507054911 41 245 1.7 5.2 0.00 0.35 0.00 84 1006.4
20260507053411 41 268 1.7 4.3 0.00 0.35 0.00 84 1006.6
20260507051911 41 220 1.7 6.1 0.00 0.35 0.00 86 1006.8
20260507050412 40 213 0.9 3.5 0.00 0.35 0.00 86 1007.0
20260507044912 40 220 0.9 2.6 0.00 0.35 0.00 86 1007.2
20260507043412 40 207 1.7 3.5 0.00 0.35 0.00 86 1007.2
20260507040412 39 210 0.0 1.7 0.00 0.35 0.35 86 1007.5
20260507034912 39 193 0.0 1.7 0.00 0.35 0.35 86 1007.5
20260507033412 40 187 0.0 0.0 0.00 0.35 0.35 86 1007.5
20260507031912 40 178 0.0 0.0 0.00 0.35 0.35 86 1007.7
20260507030412 40 217 0.0 0.0 0.00 0.35 0.35 85 1007.9
20260507024912 40 217 0.0 0.0 0.00 0.35 0.35 84 1008.1
20260507023412 41 221 0.0 0.0 0.00 0.35 0.35 85 1008.2
20260507021912 41 216 0.0 0.0 0.00 0.35 0.35 85 1008.3
20260507020412 41 248 0.0 0.0 0.00 0.35 0.35 85 1008.5
20260507014912 41 248 0.0 0.0 0.00 0.35 0.35 84 1008.4
20260507013412 41 248 0.0 0.0 0.00 0.35 0.35 83 1008.5
20260507011912 41 248 0.0 0.0 0.00 0.35 0.35 83 1008.3
20260507010412 41 248 0.0 0.0 0.00 0.35 0.35 83 1008.3
20260507004912 41 248 0.0 0.0 0.00 0.35 0.35 82 1008.2
20260507003412 41 248 0.0 0.0 0.00 0.35 0.35 81 1008.3
20260507001912 42 248 0.0 0.0 0.00 0.35 0.35 81 1008.2
20260507000412 42 248 0.0 0.0 0.00 0.35 0.35 80 1008.2
20260506234912 42 248 0.0 0.0 0.00 0.35 0.35 78 1008.0
20260506233412 43 253 0.0 0.0 0.00 0.35 0.35 77 1008.0
20260506231912 43 240 0.0 1.7 0.00 0.35 0.35 76 1008.0
20260506230412 44 248 0.9 1.7 0.00 0.35 0.35 75 1008.2
20260506224912 44 239 0.0 0.9 0.00 0.35 0.35 75 1008.1
20260506223412 44 262 1.7 3.5 0.00 0.35 0.35 74 1008.0
20260506221912 44 264 1.7 3.5 0.00 0.35 0.35 75 1008.0
20260506220412 44 254 1.7 3.5 0.00 0.35 0.35 74 1008.1
20260506214912 44 265 0.9 2.6 0.00 0.35 0.35 77 1008.2
20260506213412 44 279 0.9 2.6 0.00 0.35 0.35 76 1008.2
20260506211912 44 268 0.9 3.5 0.00 0.35 0.35 75 1008.2
20260506210412 44 276 0.9 1.7 0.00 0.35 0.35 76 1008.3
20260506204912 44 242 0.9 2.6 0.00 0.35 0.35 76 1008.2
20260506203412 44 271 0.9 2.6 0.00 0.35 0.35 77 1008.3
20260506201912 44 263 0.9 2.6 0.00 0.35 0.35 76 1008.4
20260506200412 44 218 1.7 2.6 0.00 0.35 0.35 77 1008.4
20260506194912 45 275 1.7 4.3 0.00 0.35 0.35 77 1008.4
20260506193412 45 255 1.7 5.2 0.00 0.35 0.35 76 1008.7
20260506191912 45 240 0.9 2.6 0.00 0.35 0.35 76 1008.5
20260506190412 45 269 0.9 4.3 0.00 0.35 0.35 77 1008.7
20260506184912 45 224 0.9 2.6 0.00 0.35 0.35 76 1008.6
20260506183412 45 223 0.9 3.5 0.00 0.35 0.35 79 1008.9
20260506181912 45 208 0.9 2.6 0.00 0.35 0.35 80 1008.7
20260506180412 44 240 1.7 3.5 0.00 0.35 0.35 82 1008.8
20260506174912 43 222 0.9 3.5 0.00 0.35 0.35 82 1008.9
20260506173412 43 203 0.9 4.3 0.02 0.35 0.35 83 1009.1
20260506171912 42 214 0.9 2.6 0.04 0.35 0.35 84 1009.3
20260506170412 42 162 0.9 3.5 0.05 0.35 0.35 85 1009.6
20260506164912 41 179 0.9 2.6 0.06 0.35 0.35 85 1009.7
20260506163412 41 217 0.9 2.6 0.06 0.33 0.33 83 1010.0
20260506161912 41 198 0.9 1.7 0.06 0.32 0.31 84 1010.1
20260506160412 42 189 0.9 2.6 0.06 0.31 0.30 83 1010.1
20260506154912 42 153 0.9 2.6 0.06 0.30 0.29 84 1010.2
20260506153412 42 169 0.9 2.6 0.05 0.28 0.27 84 1010.2
20260506151912 42 176 0.9 1.7 0.05 0.31 0.25 83 1010.3
20260506150412 42 176 0.9 2.6 0.07 0.30 0.24 83 1010.3
20260506144912 42 231 0.0 1.7 0.07 0.29 0.23 84 1010.4
20260506143412 42 182 0.9 2.6 0.07 0.28 0.22 82 1010.4
20260506141912 42 195 1.7 2.6 0.06 0.26 0.20 83 1010.4
20260506140412 42 249 0.9 4.3 0.05 0.23 0.17 84 1010.5
20260506134912 42 205 0.9 2.6 0.05 0.22 0.16 84 1010.3
20260506133412 42 224 0.9 2.6 0.04 0.21 0.15 84 1010.1
20260506131912 43 263 0.9 4.3 0.04 0.20 0.14 83 1010.0
20260506130412 43 229 0.9 2.6 0.03 0.18 0.12 82 1010.1
20260506124912 43 212 1.7 3.5 0.03 0.17 0.11 83 1010.0
20260506123412 43 229 1.7 7.0 0.04 0.17 0.11 83 1010.2
20260506121912 43 214 0.9 4.3 0.04 0.16 0.10 82 1010.3
20260506120412 43 212 0.9 1.7 0.05 0.15 0.09 84 1010.1
20260506114912 43 207 1.7 4.3 0.05 0.14 0.08 82 1010.1
20260506113412 43 238 0.9 6.1 0.04 0.13 0.07 81 1010.1
20260506111912 43 234 1.7 4.3 0.04 0.12 0.06 80 1010.3
20260506110412 43 258 0.9 1.7 0.04 0.10 0.04 80 1010.0
20260506104912 44 271 0.9 1.7 0.03 0.09 0.03 79 1009.9
20260506103412 44 253 0.9 4.3 0.03 0.09 0.03 77 1009.7
20260506101912 45 262 1.7 3.5 0.02 0.08 0.02 75 1009.3
20260506100412 46 243 2.6 6.1 0.00 0.06 0.00 74 1009.1
20260506094912 46 271 3.5 5.2 0.00 0.06 0.00 73 1009.1
20260506093412 47 261 0.9 3.5 0.00 0.06 0.00 81 1008.7
20260506091912 47 238 1.7 4.3 0.00 0.06 0.00 80 1008.6
20260506090412 47 250 1.7 5.2 0.00 0.06 0.00 80 1008.5
20260506084912 47 274 2.6 5.2 0.00 0.06 0.00 80 1008.8
20260506083412 48 236 1.7 6.1 0.00 0.06 0.00 79 1008.8
20260506081912 48 248 2.6 7.0 0.00 0.06 0.00 79 1008.8
20260506080412 48 250 2.6 6.1 0.00 0.06 0.00 78 1008.4
20260506073413 49 238 3.5 7.8 0.00 0.06 0.00 77 1008.2
20260506071912 49 251 2.6 7.0 0.00 0.06 0.00 76 1008.2
20260506070413 49 243 2.6 7.0 0.00 0.06 0.00 74 1008.0
20260506061913 50 238 2.6 6.1 0.00 0.06 0.00 73 1007.5